Location: Rowland
(34.5359°N, 79.2929°W)
Time: 16:22:55
(UTC+00:00)

deb Explorer IX - Visible Passes

Search period start: 26 September 2022 00:00
Search period end: 06 October 2022 00:00
Orbit: 531 x 1066 km, 38.8° (Epoch: 25 September)

Date Brightness Start Highest point End Pass type
(mag) Time Alt. Az. Time Alt. Az. Time Alt. Az.
29 Sep ? 10:29:47 10° SSE 10:31:16 11° SE 10:32:49 10° ESE visible
02 Oct ? 10:41:03 10° SW 10:45:23 38° SSE 10:50:23 10° E visible
03 Oct ? 10:10:52 10° SSW 10:14:57 34° SE 10:19:37 10° E visible
04 Oct ? 09:41:59 18° SSW 09:44:32 30° SE 09:48:52 10° E visible
05 Oct ? 09:13:31 25° SSE 09:14:07 26° SE 09:18:07 10° E visible
